Location: ??????
(38.1303°N, 24.0039°E)
Time: 08:23:41
(UTC+00:00)

BREEZE-M R/B - Pass Details

Date: 20 June 2021
Orbit: 581 x 26587 km, 48.9° (Epoch: 18 July)

Event Time Altitude Azimuth Distance (km) Brightness Sun altitude
Exits shadow 01:19:59 10° 281° (W) 1,911 4.8 -16.1°
Reaches altitude 10° 01:20:00 10° 281° (W) 1,902 4.8 -16.1°
Maximum altitude 01:23:14 33° 350° (N) 1,199 4.4 -15.7°
Drops below altitude 10° 01:29:11 10° 56° (NE) 3,541 7.7 -14.9°
Sets 01:34:51 0° 65° (ENE) 6,152 9.0 -14.1°
